Sequel — WDG4437 — position and weather

sailwx.info

Track history (hours):
 
Tides and Currents Weather Stations Pressure Air Temp Water Temp Dewpoint Dewpoint Depression Visibility Wind Speed Wind Dir Waves Ship Positions

Sequel

Owner: Big Dog Fish Company, BELLINGHAM, WA. More information available from US FCC via Universal Licensing System and Coast Guard Vessel Documentation Center.

Last reported at 2018-Jun-22 02:25 UTC. Time now 2018-Jun-24 20:16 UTC.
Position N 58°16' W 136°01'.

Length 19 m.

Type: Fishing. MMSI: 367536560.

Date/timePositionNaut miles runAvg speedWind from/ knotsBaromVisibWave heightAir tempDewpointWater temp
2018-Jun-22 02:25N 58°16' W 136°01'5 7.7
2018-Jun-22 01:48N 58°17' W 135°52'  
2018-Jun-19 12:38N 54°28' W 130°40'1 8.7
2018-Jun-19 12:30N 54°27' W 130°40'5 8.6
2018-Jun-19 11:58N 54°23' W 130°37'4 8.7
2018-Jun-19 11:30N 54°19' W 130°34'5 9.0
2018-Jun-19 11:00N 54°15' W 130°30'5 9.4
2018-Jun-19 10:30N 54°11' W 130°26'5 9.3
2018-Jun-19 10:00N 54°07' W 130°22'4 8.7
2018-Jun-19 09:30N 54°04' W 130°17'5 9.0
2018-Jun-19 08:59N 53°60' W 130°13'4 9.4
2018-Jun-19 08:30N 53°56' W 130°11'4 8.5
2018-Jun-19 08:00N 53°53' W 130°05'4 8.3
2018-Jun-19 07:30N 53°50' W 130°01'100 7.5
2018-Jun-18 18:10N 52°27' W 128°28'1 8.9
2018-Jun-18 18:00N 52°26' W 128°29'5 8.6
2018-Jun-18 17:27N 52°21' W 128°31'4 9.1
2018-Jun-18 16:59N 52°17' W 128°27'5 9.5
2018-Jun-18 16:29N 52°15' W 128°20'510.0
2018-Jun-18 16:00N 52°14' W 128°13'5 7.1
2018-Jun-18 15:19N 52°10' W 128°08'3 8.5
2018-Jun-18 15:00N 52°07' W 128°08'3 7.0
2018-Jun-18 14:30N 52°05' W 128°04'4 5.5
2018-Jun-18 13:52N 52°05' W 127°58'3 7.8
2018-Jun-18 13:30N 52°02' W 127°56'4 8.4
2018-Jun-18 13:00N 51°58' W 127°56'4 8.8
2018-Jun-18 12:30N 51°54' W 127°55'5 9.3
2018-Jun-18 12:00N 51°49' W 127°55'4 8.7
2018-Jun-18 11:30N 51°44' W 127°55'4 8.4
2018-Jun-18 11:00N 51°40' W 127°54'4 8.8
2018-Jun-18 10:30N 51°36' W 127°53'4 8.8
2018-Jun-18 10:00N 51°32' W 127°52'4 8.4
2018-Jun-18 09:30N 51°27' W 127°51'5 8.5
2018-Jun-18 08:53N 51°22' W 127°51'12 8.4
2018-Jun-18 07:31N 51°11' W 127°50'0 8.4
2018-Jun-18 07:30N 51°11' W 127°50'4 8.0
2018-Jun-18 07:00N 51°07' W 127°47'4 8.1
2018-Jun-18 06:27N 51°04' W 127°41'4 8.4
2018-Jun-18 06:00N 51°01' W 127°37'4 8.7
2018-Jun-18 05:30N 50°59' W 127°32'4 7.7
2018-Jun-18 05:00N 50°57' W 127°27'5 9.7
2018-Jun-18 04:29N 50°53' W 127°21'5 9.4
2018-Jun-18 03:54N 50°50' W 127°14'79 8.4
2018-Jun-17 18:27N 50°14' W 125°23'510.6
2018-Jun-17 18:00N 50°09' W 125°22'612.2
2018-Jun-17 17:28N 50°04' W 125°15'612.6
2018-Jun-17 16:59N 49°59' W 125°11'2 3.3
2018-Jun-17 16:25N 49°58' W 125°09'4 9.0
2018-Jun-17 15:59N 49°55' W 125°04'5 9.2
2018-Jun-17 15:27N 49°52' W 124°58'4 8.9
2018-Jun-17 15:00N 49°50' W 124°53'4 8.7
2018-Jun-17 14:30N 49°47' W 124°48'4 8.5
2018-Jun-17 13:59N 49°44' W 124°43'76 7.8
2018-Jun-17 04:16N 48°58' W 123°09'  
Track history (hours):
 
Tides and Currents Weather Stations Pressure Air Temp Water Temp Dewpoint Dewpoint Depression Visibility Wind Speed Wind Dir Waves Ship Positions

Sequel

Owner: Big Dog Fish Company, BELLINGHAM, WA. More information available from US FCC via Universal Licensing System and Coast Guard Vessel Documentation Center.

Last reported at 2018-Jun-22 02:25 UTC. Time now 2018-Jun-24 20:16 UTC.
Position N 58°16' W 136°01'.

Length 19 m.

Type: Fishing. MMSI: 367536560.

Date/timePositionNaut miles runAvg speedWind from/ knotsBaromVisibWave heightAir tempDewpointWater temp
2018-Jun-22 02:25N 58°16' W 136°01'5 7.7
2018-Jun-22 01:48N 58°17' W 135°52'  
2018-Jun-19 12:38N 54°28' W 130°40'1 8.7
2018-Jun-19 12:30N 54°27' W 130°40'5 8.6
2018-Jun-19 11:58N 54°23' W 130°37'4 8.7
2018-Jun-19 11:30N 54°19' W 130°34'5 9.0
2018-Jun-19 11:00N 54°15' W 130°30'5 9.4
2018-Jun-19 10:30N 54°11' W 130°26'5 9.3
2018-Jun-19 10:00N 54°07' W 130°22'4 8.7
2018-Jun-19 09:30N 54°04' W 130°17'5 9.0
2018-Jun-19 08:59N 53°60' W 130°13'4 9.4
2018-Jun-19 08:30N 53°56' W 130°11'4 8.5
2018-Jun-19 08:00N 53°53' W 130°05'4 8.3
2018-Jun-19 07:30N 53°50' W 130°01'100 7.5
2018-Jun-18 18:10N 52°27' W 128°28'1 8.9
2018-Jun-18 18:00N 52°26' W 128°29'5 8.6
2018-Jun-18 17:27N 52°21' W 128°31'4 9.1
2018-Jun-18 16:59N 52°17' W 128°27'5 9.5
2018-Jun-18 16:29N 52°15' W 128°20'510.0
2018-Jun-18 16:00N 52°14' W 128°13'5 7.1
2018-Jun-18 15:19N 52°10' W 128°08'3 8.5
2018-Jun-18 15:00N 52°07' W 128°08'3 7.0
2018-Jun-18 14:30N 52°05' W 128°04'4 5.5
2018-Jun-18 13:52N 52°05' W 127°58'3 7.8
2018-Jun-18 13:30N 52°02' W 127°56'4 8.4
2018-Jun-18 13:00N 51°58' W 127°56'4 8.8
2018-Jun-18 12:30N 51°54' W 127°55'5 9.3
2018-Jun-18 12:00N 51°49' W 127°55'4 8.7
2018-Jun-18 11:30N 51°44' W 127°55'4 8.4
2018-Jun-18 11:00N 51°40' W 127°54'4 8.8
2018-Jun-18 10:30N 51°36' W 127°53'4 8.8
2018-Jun-18 10:00N 51°32' W 127°52'4 8.4
2018-Jun-18 09:30N 51°27' W 127°51'5 8.5
2018-Jun-18 08:53N 51°22' W 127°51'12 8.4
2018-Jun-18 07:31N 51°11' W 127°50'0 8.4
2018-Jun-18 07:30N 51°11' W 127°50'4 8.0
2018-Jun-18 07:00N 51°07' W 127°47'4 8.1
2018-Jun-18 06:27N 51°04' W 127°41'4 8.4
2018-Jun-18 06:00N 51°01' W 127°37'4 8.7
2018-Jun-18 05:30N 50°59' W 127°32'4 7.7
2018-Jun-18 05:00N 50°57' W 127°27'5 9.7
2018-Jun-18 04:29N 50°53' W 127°21'5 9.4
2018-Jun-18 03:54N 50°50' W 127°14'79 8.4
2018-Jun-17 18:27N 50°14' W 125°23'510.6
2018-Jun-17 18:00N 50°09' W 125°22'612.2
2018-Jun-17 17:28N 50°04' W 125°15'612.6
2018-Jun-17 16:59N 49°59' W 125°11'2 3.3
2018-Jun-17 16:25N 49°58' W 125°09'4 9.0
2018-Jun-17 15:59N 49°55' W 125°04'5 9.2
2018-Jun-17 15:27N 49°52' W 124°58'4 8.9
2018-Jun-17 15:00N 49°50' W 124°53'4 8.7
2018-Jun-17 14:30N 49°47' W 124°48'4 8.5
2018-Jun-17 13:59N 49°44' W 124°43'76 7.8
2018-Jun-17 04:16N 48°58' W 123°09'  

Dump ship's entire track history